BAW252 MYNN-MWCR

Flight info

Callsign BAW252
Flight time 1h 15m
Altitude 39000
Route JEFRY G437 DYNAH UG437 ULATU/N0479F410 UG437 ULBAS UM330 KANEX GORAN3
Aircraft B772/H-SDE2E3FGHIJ5LORVWXY/LB1D1

Departure

Time 2026-04-23 15:30
Airport Lynden Pindling International Airport (MYNN)

Arrival

Time 2026-04-23 16:46
Airport Owen Roberts International Airport (MWCR)
Time Latitude Longitude Altitude Speed Heading
2026-04-23 14:57 25.04867 -77.46827 21 ft 0 kts 146°
2026-04-23 15:22 25.04868 -77.46828 21 ft 1 kts 146°
2026-04-23 15:23 25.04888 -77.46843 25 ft 4 kts 146°
2026-04-23 15:23 25.04910 -77.46859 24 ft 4 kts 146°
2026-04-23 15:23 25.04932 -77.46872 24 ft 4 kts 182°
2026-04-23 15:23 25.04940 -77.46871 25 ft 0 kts 245°
2026-04-23 15:27 25.04927 -77.46901 23 ft 7 kts 244°
2026-04-23 15:27 25.04903 -77.46952 26 ft 7 kts 253°
2026-04-23 15:27 25.04914 -77.47008 25 ft 9 kts 300°
2026-04-23 15:27 25.04961 -77.47068 26 ft 12 kts 315°
2026-04-23 15:28 25.05017 -77.47131 24 ft 12 kts 314°
2026-04-23 15:28 25.05074 -77.47194 26 ft 12 kts 315°
2026-04-23 15:28 25.05131 -77.47257 26 ft 12 kts 315°
2026-04-23 15:28 25.05188 -77.47320 26 ft 12 kts 313°
2026-04-23 15:29 25.05220 -77.47398 23 ft 12 kts 268°
2026-04-23 15:29 25.05208 -77.47455 27 ft 12 kts 254°
2026-04-23 15:29 25.05167 -77.47520 28 ft 9 kts 210°
2026-04-23 15:29 25.05114 -77.47492 27 ft 9 kts 134°
2026-04-23 15:30 25.05019 -77.47383 26 ft 47 kts 134°
2026-04-23 15:30 25.04600 -77.46909 29 ft 124 kts 136°
2026-04-23 15:30 25.03849 -77.46111 321 ft 162 kts 134°
2026-04-23 15:30 25.03049 -77.45243 1091 ft 163 kts 131°
2026-04-23 15:31 25.02249 -77.44389 2000 ft 146 kts 133°
2026-04-23 15:31 25.01513 -77.43714 2704 ft 138 kts 135°
2026-04-23 15:31 25.00752 -77.42992 3044 ft 144 kts 134°
2026-04-23 15:31 24.99973 -77.42282 3533 ft 149 kts 135°
2026-04-23 15:32 24.98925 -77.41133 4076 ft 180 kts 132°
2026-04-23 15:32 24.98229 -77.40522 4327 ft 201 kts 156°
2026-04-23 15:32 24.96804 -77.40423 4841 ft 223 kts 198°
2026-04-23 15:32 24.95446 -77.41304 5304 ft 229 kts 216°
2026-04-23 15:33 24.94156 -77.42343 5761 ft 234 kts 214°
2026-04-23 15:33 24.92770 -77.43396 6318 ft 244 kts 213°
2026-04-23 15:33 24.91346 -77.44428 6802 ft 246 kts 212°
2026-04-23 15:33 24.89882 -77.45447 7293 ft 251 kts 212°
2026-04-23 15:34 24.88378 -77.46463 7791 ft 257 kts 212°
2026-04-23 15:34 24.86790 -77.47511 8345 ft 280 kts 212°
2026-04-23 15:34 24.85083 -77.48618 8859 ft 285 kts 211°
2026-04-23 15:34 24.83357 -77.49721 9370 ft 289 kts 212°
2026-04-23 15:35 24.81604 -77.50830 9893 ft 292 kts 212°
2026-04-23 15:35 24.79821 -77.51952 10370 ft 296 kts 212°
2026-04-23 15:35 24.78023 -77.53079 10838 ft 297 kts 213°
2026-04-23 15:35 24.76249 -77.54187 11307 ft 297 kts 213°
2026-04-23 15:36 24.74445 -77.55312 11790 ft 298 kts 213°
2026-04-23 15:36 24.72641 -77.56438 12283 ft 299 kts 212°
2026-04-23 15:36 24.70821 -77.57571 12790 ft 301 kts 212°
2026-04-23 15:36 24.68991 -77.58711 13299 ft 303 kts 213°
2026-04-23 15:37 24.67151 -77.59857 13792 ft 308 kts 213°
2026-04-23 15:37 24.65196 -77.61079 14005 ft 338 kts 213°
2026-04-23 15:37 24.63077 -77.62400 14421 ft 358 kts 213°
2026-04-23 15:37 24.60909 -77.63746 15189 ft 366 kts 213°
2026-04-23 15:38 24.58679 -77.65117 16096 ft 369 kts 211°
2026-04-23 15:38 24.56332 -77.66315 17086 ft 373 kts 206°
2026-04-23 15:38 24.53920 -77.67420 18047 ft 377 kts 206°
2026-04-23 15:38 24.51489 -77.68540 18939 ft 381 kts 207°
2026-04-23 15:39 24.49033 -77.69679 19752 ft 385 kts 207°
2026-04-23 15:39 24.46553 -77.70834 20618 ft 388 kts 207°
2026-04-23 15:39 24.44056 -77.72000 21461 ft 391 kts 207°
2026-04-23 15:39 24.41556 -77.73165 22287 ft 395 kts 207°
2026-04-23 15:40 24.39006 -77.74349 23110 ft 400 kts 208°
2026-04-23 15:40 24.36432 -77.75540 23887 ft 404 kts 208°
2026-04-23 15:40 24.33832 -77.76743 24576 ft 408 kts 208°
2026-04-23 15:40 24.31208 -77.77956 25274 ft 411 kts 208°
2026-04-23 15:41 24.28563 -77.79178 25956 ft 414 kts 208°
2026-04-23 15:41 24.25895 -77.80411 26596 ft 418 kts 208°
2026-04-23 15:41 24.23204 -77.81655 27191 ft 422 kts 208°
2026-04-23 15:41 24.20484 -77.82912 27748 ft 426 kts 208°
2026-04-23 15:42 24.17772 -77.84165 28301 ft 430 kts 208°
2026-04-23 15:42 24.15000 -77.85443 28864 ft 433 kts 208°
2026-04-23 15:42 24.12217 -77.86727 29419 ft 436 kts 208°
2026-04-23 15:42 24.09413 -77.88019 29933 ft 439 kts 208°
2026-04-23 15:43 24.06583 -77.89323 30370 ft 442 kts 208°
2026-04-23 15:43 24.03735 -77.90635 30811 ft 444 kts 208°
2026-04-23 15:43 24.00883 -77.91947 31264 ft 445 kts 208°
2026-04-23 15:43 23.98051 -77.93250 31680 ft 446 kts 209°
2026-04-23 15:44 23.95146 -77.94590 32074 ft 447 kts 210°
2026-04-23 15:44 23.92365 -77.96001 32413 ft 447 kts 212°
2026-04-23 15:44 23.89559 -77.97496 32664 ft 449 kts 212°
2026-04-23 15:44 23.86755 -77.99003 32989 ft 450 kts 212°
2026-04-23 15:45 23.83947 -78.00508 33378 ft 449 kts 213°
2026-04-23 15:45 23.81148 -78.02001 33858 ft 446 kts 213°
2026-04-23 15:45 23.78361 -78.03481 34355 ft 442 kts 213°
2026-04-23 15:45 23.75604 -78.04943 34784 ft 439 kts 213°
2026-04-23 15:46 23.72865 -78.06396 35167 ft 438 kts 213°
2026-04-23 15:46 23.70121 -78.07850 35535 ft 436 kts 213°
2026-04-23 15:46 23.67393 -78.09294 35922 ft 435 kts 213°
2026-04-23 15:46 23.64709 -78.10711 36295 ft 433 kts 214°
2026-04-23 15:47 23.62002 -78.12137 36659 ft 432 kts 214°
2026-04-23 15:47 23.59304 -78.13559 37037 ft 429 kts 214°
2026-04-23 15:47 23.56628 -78.14967 37478 ft 425 kts 214°
2026-04-23 15:47 23.53965 -78.16370 37816 ft 424 kts 214°
2026-04-23 15:48 23.51307 -78.17772 38137 ft 424 kts 214°
2026-04-23 15:48 23.48653 -78.19170 38459 ft 422 kts 214°
2026-04-23 15:48 23.46011 -78.20562 38791 ft 421 kts 214°
2026-04-23 15:48 23.43377 -78.21948 39003 ft 421 kts 214°
2026-04-23 15:49 23.40728 -78.23345 39038 ft 424 kts 214°
2026-04-23 15:49 23.35407 -78.26143 39101 ft 423 kts 214°
2026-04-23 15:50 23.30132 -78.28908 39072 ft 419 kts 214°
2026-04-23 15:50 23.24917 -78.31647 39101 ft 418 kts 214°
2026-04-23 15:51 23.19674 -78.34396 39113 ft 418 kts 214°
2026-04-23 15:51 23.14421 -78.37148 39104 ft 419 kts 214°
2026-04-23 15:52 23.09158 -78.39903 39104 ft 420 kts 214°
2026-04-23 15:52 23.03888 -78.42660 39103 ft 420 kts 214°
2026-04-23 15:53 22.98615 -78.45416 39079 ft 420 kts 214°
2026-04-23 15:53 22.93370 -78.48160 39095 ft 421 kts 214°
2026-04-23 15:54 22.88081 -78.50925 39105 ft 421 kts 214°
2026-04-23 15:54 22.82794 -78.53688 39103 ft 422 kts 214°
2026-04-23 15:55 22.77509 -78.56446 39095 ft 421 kts 213°
2026-04-23 15:55 22.72223 -78.59196 39095 ft 421 kts 213°
2026-04-23 15:56 22.66974 -78.61923 39086 ft 421 kts 213°
2026-04-23 15:56 22.61685 -78.64670 39086 ft 421 kts 213°
2026-04-23 15:57 22.56404 -78.67412 39087 ft 421 kts 213°
2026-04-23 15:57 22.51116 -78.70155 39089 ft 421 kts 213°
2026-04-23 15:58 22.45832 -78.72893 39083 ft 421 kts 213°
2026-04-23 15:58 22.40540 -78.75633 39088 ft 421 kts 213°
2026-04-23 15:59 22.35298 -78.78345 39076 ft 420 kts 213°
2026-04-23 15:59 22.30026 -78.81070 39081 ft 419 kts 213°
2026-04-23 16:00 22.24761 -78.83790 39079 ft 419 kts 213°
2026-04-23 16:00 22.19487 -78.86512 39080 ft 419 kts 213°
2026-04-23 16:01 22.14253 -78.89212 39079 ft 419 kts 213°
2026-04-23 16:01 22.08982 -78.91927 39077 ft 419 kts 213°
2026-04-23 16:02 22.03710 -78.94642 39069 ft 420 kts 213°
2026-04-23 16:02 21.98422 -78.97363 39077 ft 422 kts 213°
2026-04-23 16:03 21.93112 -79.00092 39068 ft 423 kts 213°
2026-04-23 16:03 21.87823 -79.02808 39068 ft 423 kts 213°
2026-04-23 16:04 21.82499 -79.05540 39062 ft 424 kts 213°
2026-04-23 16:04 21.77173 -79.08271 39064 ft 423 kts 213°
2026-04-23 16:05 21.72767 -79.10558 39052 ft 420 kts 216°
2026-04-23 16:05 21.67128 -79.14564 39061 ft 412 kts 224°
2026-04-23 16:06 21.62851 -79.18588 39064 ft 411 kts 227°
2026-04-23 16:06 21.58578 -79.22699 39064 ft 412 kts 227°
2026-04-23 16:07 21.54291 -79.26802 39063 ft 413 kts 227°
2026-04-23 16:07 21.49979 -79.30915 39066 ft 414 kts 227°
2026-04-23 16:08 21.45697 -79.34992 39063 ft 414 kts 227°
2026-04-23 16:08 21.41386 -79.39094 39058 ft 414 kts 226°
2026-04-23 16:09 21.37073 -79.43194 39060 ft 414 kts 226°
2026-04-23 16:09 21.32761 -79.47292 39076 ft 414 kts 226°
2026-04-23 16:10 21.28443 -79.51390 39076 ft 414 kts 226°
2026-04-23 16:10 21.24150 -79.55460 39076 ft 414 kts 226°
2026-04-23 16:11 21.19832 -79.59550 39072 ft 414 kts 226°
2026-04-23 16:11 21.15518 -79.63636 39075 ft 414 kts 226°
2026-04-23 16:12 21.11187 -79.67735 39075 ft 414 kts 226°
2026-04-23 16:12 21.06895 -79.71793 39059 ft 414 kts 226°
2026-04-23 16:13 21.02579 -79.75871 39053 ft 414 kts 226°
2026-04-23 16:13 20.96097 -79.81990 39060 ft 414 kts 226°
2026-04-23 16:14 20.91772 -79.86068 39060 ft 414 kts 226°
2026-04-23 16:14 20.87470 -79.90121 39059 ft 414 kts 226°
2026-04-23 16:15 20.83141 -79.94197 39046 ft 414 kts 226°
2026-04-23 16:15 20.78811 -79.98270 39054 ft 414 kts 226°
2026-04-23 16:16 20.74504 -80.02319 39056 ft 415 kts 226°
2026-04-23 16:16 20.70162 -80.06397 39053 ft 415 kts 226°
2026-04-23 16:17 20.65823 -80.10470 39053 ft 415 kts 226°
2026-04-23 16:17 20.61505 -80.14519 39053 ft 415 kts 226°
2026-04-23 16:18 20.57165 -80.18587 39054 ft 415 kts 225°
2026-04-23 16:18 20.53527 -80.21994 39050 ft 415 kts 225°
2026-04-23 16:19 20.49210 -80.26033 39039 ft 416 kts 225°
2026-04-23 16:19 20.44850 -80.30100 39045 ft 417 kts 225°
2026-04-23 16:20 20.40465 -80.34190 38561 ft 425 kts 225°
2026-04-23 16:20 20.38237 -80.36268 37855 ft 425 kts 225°
2026-04-23 16:20 20.36017 -80.38337 37117 ft 423 kts 225°
2026-04-23 16:21 20.33804 -80.40397 36369 ft 422 kts 225°
2026-04-23 16:21 20.31592 -80.42455 35643 ft 422 kts 225°
2026-04-23 16:21 20.29388 -80.44507 35026 ft 419 kts 226°
2026-04-23 16:21 20.27194 -80.46547 34405 ft 417 kts 226°
2026-04-23 16:22 20.25016 -80.48574 33782 ft 415 kts 226°
2026-04-23 16:22 20.22849 -80.50589 33172 ft 412 kts 226°
2026-04-23 16:22 20.20702 -80.52586 32583 ft 408 kts 225°
2026-04-23 16:22 20.18567 -80.54572 32021 ft 405 kts 225°
2026-04-23 16:23 20.16477 -80.56513 31488 ft 403 kts 225°
2026-04-23 16:23 20.14364 -80.58474 30951 ft 400 kts 225°
2026-04-23 16:23 20.12267 -80.60421 30403 ft 399 kts 225°
2026-04-23 16:23 20.10177 -80.62361 29791 ft 398 kts 225°
2026-04-23 16:24 20.08091 -80.64297 29149 ft 397 kts 225°
2026-04-23 16:24 20.06012 -80.66225 28523 ft 395 kts 225°
2026-04-23 16:24 20.03944 -80.68143 27928 ft 394 kts 225°
2026-04-23 16:24 20.01909 -80.70029 27359 ft 392 kts 225°
2026-04-23 16:25 19.99854 -80.71932 26771 ft 391 kts 225°
2026-04-23 16:25 19.97804 -80.73829 26189 ft 390 kts 225°
2026-04-23 16:25 19.95757 -80.75722 25628 ft 389 kts 225°
2026-04-23 16:25 19.93714 -80.77611 25049 ft 389 kts 225°
2026-04-23 16:26 19.91670 -80.79501 24479 ft 389 kts 225°
2026-04-23 16:26 19.89625 -80.81391 23909 ft 390 kts 225°
2026-04-23 16:26 19.87578 -80.83283 23300 ft 390 kts 224°
2026-04-23 16:26 19.85529 -80.85177 22698 ft 390 kts 224°
2026-04-23 16:27 19.83516 -80.87036 22132 ft 388 kts 224°
2026-04-23 16:27 19.81446 -80.88947 21570 ft 387 kts 224°
2026-04-23 16:27 19.79445 -80.90794 21036 ft 386 kts 224°
2026-04-23 16:27 19.77418 -80.92663 20508 ft 385 kts 224°
2026-04-23 16:28 19.75394 -80.94530 19978 ft 384 kts 223°
2026-04-23 16:28 19.73376 -80.96390 19457 ft 383 kts 223°
2026-04-23 16:28 19.71365 -80.98244 18934 ft 383 kts 223°
2026-04-23 16:28 19.69348 -81.00102 18420 ft 383 kts 223°
2026-04-23 16:29 19.67338 -81.01953 17853 ft 382 kts 223°
2026-04-23 16:29 19.65354 -81.03780 17330 ft 380 kts 223°
2026-04-23 16:29 19.63361 -81.05614 16823 ft 378 kts 223°
2026-04-23 16:29 19.61377 -81.07439 16329 ft 377 kts 223°
2026-04-23 16:30 19.59399 -81.09258 15837 ft 375 kts 224°
2026-04-23 16:30 19.57435 -81.11065 15350 ft 373 kts 223°
2026-04-23 16:30 19.55475 -81.12866 14876 ft 372 kts 224°
2026-04-23 16:30 19.53520 -81.14662 14383 ft 371 kts 223°
2026-04-23 16:31 19.51571 -81.16454 13897 ft 371 kts 222°
2026-04-23 16:31 19.49646 -81.18220 13358 ft 358 kts 222°
2026-04-23 16:31 19.47800 -81.19913 12869 ft 343 kts 222°
2026-04-23 16:31 19.46032 -81.21535 12405 ft 330 kts 222°
2026-04-23 16:32 19.44326 -81.23100 11973 ft 318 kts 221°
2026-04-23 16:32 19.42673 -81.24617 11553 ft 312 kts 222°
2026-04-23 16:32 19.41034 -81.26122 11138 ft 314 kts 221°
2026-04-23 16:32 19.39342 -81.27675 10706 ft 336 kts 221°
2026-04-23 16:33 19.37576 -81.29295 10517 ft 331 kts 221°
2026-04-23 16:33 19.35860 -81.30867 10331 ft 321 kts 221°
2026-04-23 16:33 19.34197 -81.32389 10174 ft 311 kts 221°
2026-04-23 16:33 19.32579 -81.33869 9917 ft 305 kts 221°
2026-04-23 16:34 19.30996 -81.35330 9603 ft 296 kts 224°
2026-04-23 16:34 19.29832 -81.37072 9219 ft 290 kts 250°
2026-04-23 16:34 19.29513 -81.39157 8862 ft 288 kts 271°
2026-04-23 16:34 19.29830 -81.41223 8484 ft 280 kts 284°
2026-04-23 16:35 19.30312 -81.43183 8092 ft 271 kts 284°
2026-04-23 16:35 19.30789 -81.45095 7688 ft 265 kts 284°
2026-04-23 16:35 19.31246 -81.46936 7279 ft 259 kts 284°
2026-04-23 16:35 19.31702 -81.48787 6906 ft 254 kts 284°
2026-04-23 16:36 19.32138 -81.50579 6536 ft 256 kts 284°
2026-04-23 16:36 19.32583 -81.52421 6163 ft 260 kts 284°
2026-04-23 16:36 19.33030 -81.54283 5775 ft 263 kts 284°
2026-04-23 16:36 19.33476 -81.56145 5415 ft 257 kts 284°
2026-04-23 16:37 19.33908 -81.57951 5062 ft 248 kts 284°
2026-04-23 16:37 19.34318 -81.59706 4615 ft 243 kts 281°
2026-04-23 16:37 19.34184 -81.61448 4122 ft 235 kts 243°
2026-04-23 16:37 19.33191 -81.62732 3694 ft 222 kts 211°
2026-04-23 16:38 19.31838 -81.63418 3279 ft 212 kts 192°
2026-04-23 16:38 19.30404 -81.63763 2890 ft 212 kts 182°
2026-04-23 16:38 19.28946 -81.63803 2550 ft 213 kts 172°
2026-04-23 16:38 19.27462 -81.63646 2213 ft 215 kts 167°
2026-04-23 16:39 19.26003 -81.63404 1986 ft 205 kts 157°
2026-04-23 16:39 19.24839 -81.62649 1803 ft 189 kts 132°
2026-04-23 16:39 19.24087 -81.61574 1638 ft 174 kts 116°
2026-04-23 16:39 19.23306 -81.60613 1537 ft 173 kts 133°
2026-04-23 16:40 19.22682 -81.59593 1497 ft 166 kts 95°
2026-04-23 16:40 19.23035 -81.58432 1521 ft 173 kts 59°
2026-04-23 16:40 19.23622 -81.57293 1512 ft 177 kts 66°
2026-04-23 16:40 19.24067 -81.56101 1511 ft 170 kts 71°
2026-04-23 16:41 19.24437 -81.54913 1503 ft 170 kts 73°
2026-04-23 16:41 19.24784 -81.53694 1503 ft 173 kts 74°
2026-04-23 16:41 19.25127 -81.52494 1477 ft 167 kts 73°
2026-04-23 16:41 19.25472 -81.51311 1467 ft 170 kts 73°
2026-04-23 16:42 19.25795 -81.50126 1476 ft 169 kts 75°
2026-04-23 16:42 19.26097 -81.48955 1469 ft 163 kts 75°
2026-04-23 16:42 19.26391 -81.47784 1375 ft 162 kts 76°
2026-04-23 16:42 19.26664 -81.46666 1259 ft 156 kts 76°
2026-04-23 16:43 19.26934 -81.45557 1201 ft 153 kts 76°
2026-04-23 16:43 19.27192 -81.44497 1042 ft 146 kts 77°
2026-04-23 16:43 19.27438 -81.43477 966 ft 143 kts 76°
2026-04-23 16:43 19.27696 -81.42405 906 ft 148 kts 76°
2026-04-23 16:44 19.27954 -81.41358 923 ft 146 kts 75°
2026-04-23 16:44 19.28196 -81.40359 731 ft 139 kts 75°
2026-04-23 16:44 19.28421 -81.39374 562 ft 135 kts 75°
2026-04-23 16:44 19.28648 -81.38407 313 ft 138 kts 74°
2026-04-23 16:45 19.28877 -81.37449 155 ft 129 kts 76°
2026-04-23 16:45 19.29089 -81.36578 37 ft 119 kts 75°
2026-04-23 16:45 19.29273 -81.35812 19 ft 81 kts 76°
2026-04-23 16:45 19.29375 -81.35375 19 ft 54 kts 76°
2026-04-23 16:46 19.29458 -81.35029 26 ft 40 kts 76°
2026-04-23 16:46 19.29516 -81.34886 25 ft 6 kts 16°
2026-04-23 16:46 19.29556 -81.34912 22 ft 18 kts 303°
2026-04-23 16:46 19.29538 -81.35045 23 ft 19 kts 257°
2026-04-23 16:47 19.29507 -81.35180 20 ft 19 kts 256°
2026-04-23 16:47 19.29475 -81.35314 20 ft 19 kts 256°
2026-04-23 16:47 19.29444 -81.35447 20 ft 17 kts 256°
2026-04-23 16:47 19.29427 -81.35553 20 ft 11 kts 284°
2026-04-23 16:48 19.29467 -81.35623 20 ft 11 kts 279°
2026-04-23 16:48 19.29454 -81.35704 22 ft 11 kts 256°
2026-04-23 16:48 19.29463 -81.35753 22 ft 5 kts 320°
2026-04-23 16:48 19.29473 -81.35758 20 ft 0 kts 333°
2026-04-23 16:49 19.29474 -81.35759 20 ft 0 kts 327°
2026-04-23 16:49 19.29486 -81.35768 20 ft 4 kts 336°
2026-04-23 16:49 19.29491 -81.35769 20 ft 0 kts 349°